EN

Hourly Weather Altea

Today, 18 January, Monday

Time Temperature Precipitation Wind Pressure Humidity
00:00 +11°C° 0 mm 3 mps 766 mmHg 61%
01:00 +11°C° 0 mm 4 mps 766 mmHg 63%
02:00 +10°C° 0 mm 4 mps 766 mmHg 66%
03:00 +9°C° 0 mm 5 mps 766 mmHg 68%
04:00 +8°C° 0 mm 5 mps 766 mmHg 70%
05:00 +8°C° 0 mm 5 mps 766 mmHg 72%
06:00 +7°C° 0 mm 4 mps 766 mmHg 75%
07:00 +10°C° 0 mm 4 mps 767 mmHg 73%
08:00 +11°C° 0 mm 4 mps 767 mmHg 71%
09:00 +12°C° 0 mm 4 mps 768 mmHg 69%
10:00 +13°C° 0 mm 3 mps 768 mmHg 66%
11:00 +14°C° 0 mm 3 mps 767 mmHg 63%
12:00 +16°C° 0 mm 3 mps 767 mmHg 61%
13:00 +16°C° 0 mm 3 mps 767 mmHg 64%
14:00 +16°C° 0 mm 3 mps 766 mmHg 68%
15:00 +14°C° 0 mm 3 mps 766 mmHg 72%
16:00 +13°C° 0 mm 3 mps 766 mmHg 78%
17:00 +12°C° 0 mm 3 mps 766 mmHg 85%
18:00 +10°C° 0 mm 3 mps 766 mmHg 92%
19:00 +10°C° 0 mm 3 mps 767 mmHg 92%
20:00 +10°C° 0 mm 2 mps 767 mmHg 92%
21:00 +10°C° 0 mm 2 mps 767 mmHg 92%
22:00 +9°C° 0 mm 2 mps 767 mmHg 90%
23:00 +9°C° 0 mm 2 mps 767 mmHg 89%

Tomorrow, 19 January, Tuesday

Time Temperature Precipitation Wind Pressure Humidity
00:00 +8°C° 0 mm 2 mps 767 mmHg 88%
01:00 +8°C° 0 mm 2 mps 767 mmHg 86%
02:00 +9°C° 0 mm 1 mps 766 mmHg 85%
03:00 +9°C° 0 mm 1 mps 766 mmHg 84%
04:00 +8°C° 0 mm 1 mps 766 mmHg 84%
05:00 +7°C° 0 mm 2 mps 766 mmHg 83%
06:00 +7°C° 0 mm 2 mps 766 mmHg 83%
07:00 +9°C° 0 mm 2 mps 766 mmHg 78%
08:00 +12°C° 0 mm 2 mps 766 mmHg 73%
09:00 +13°C° 0 mm 2 mps 766 mmHg 68%
10:00 +14°C° 0 mm 3 mps 765 mmHg 63%
11:00 +16°C° 0 mm 3 mps 765 mmHg 58%
12:00 +17°C° 0 mm 3 mps 765 mmHg 53%
13:00 +17°C° 0 mm 3 mps 764 mmHg 54%
14:00 +17°C° 0 mm 4 mps 764 mmHg 55%
15:00 +17°C° 0 mm 4 mps 763 mmHg 57%
16:00 +14°C° 0 mm 4 mps 763 mmHg 66%
17:00 +12°C° 0 mm 4 mps 763 mmHg 74%
18:00 +10°C° 0 mm 4 mps 763 mmHg 83%
19:00 +10°C° 0 mm 4 mps 763 mmHg 82%
20:00 +10°C° 0 mm 4 mps 763 mmHg 82%
21:00 +8°C° 0 mm 4 mps 762 mmHg 81%
22:00 +8°C° 0 mm 4 mps 762 mmHg 80%
23:00 +8°C° 0 mm 4 mps 762 mmHg 79%

Day after tomorrow, 20 January, Wednesday

Time Temperature Precipitation Wind Pressure Humidity
00:00 +8°C° 0 mm 4 mps 761 mmHg 78%
01:00 +7°C° 0 mm 4 mps 761 mmHg 78%
02:00 +7°C° 0 mm 4 mps 760 mmHg 77%
03:00 +7°C° 0 mm 4 mps 760 mmHg 77%
04:00 +7°C° 0 mm 4 mps 759 mmHg 77%
05:00 +7°C° 0 mm 4 mps 759 mmHg 78%
06:00 +7°C° 0 mm 5 mps 759 mmHg 78%
07:00 +8°C° 0 mm 5 mps 759 mmHg 76%
08:00 +9°C° 0 mm 5 mps 758 mmHg 74%
09:00 +10°C° 0 mm 5 mps 758 mmHg 71%
10:00 +12°C° 0 mm 4 mps 758 mmHg 65%
11:00 +14°C° 0 mm 4 mps 758 mmHg 59%
12:00 +15°C° 0 mm 4 mps 758 mmHg 53%
13:00 +15°C° 0 mm 4 mps 757 mmHg 55%
14:00 +14°C° 0 mm 3 mps 756 mmHg 56%
15:00 +14°C° 0 mm 3 mps 755 mmHg 58%
16:00 +13°C° 0 mm 4 mps 755 mmHg 64%
17:00 +12°C° 0 mm 5 mps 755 mmHg 71%
18:00 +10°C° 0 mm 5 mps 755 mmHg 77%
19:00 +10°C° 0 mm 5 mps 755 mmHg 71%
20:00 +11°C° 0 mm 4 mps 755 mmHg 65%
21:00 +11°C° 0 mm 4 mps 755 mmHg 60%
22:00 +11°C° 0.1 mm 4 mps 755 mmHg 63%
23:00 +10°C° 0.1 mm 5 mps 756 mmHg 66%

21 January, Thursday

Time Temperature Precipitation Wind Pressure Humidity
00:00 +10°C° 0.1 mm 5 mps 756 mmHg 69%
01:00 +10°C° 0 mm 5 mps 756 mmHg 73%
02:00 +9°C° 0 mm 5 mps 756 mmHg 77%
03:00 +9°C° 0 mm 5 mps 756 mmHg 81%
04:00 +8°C° 0 mm 5 mps 756 mmHg 81%
05:00 +8°C° 0 mm 6 mps 757 mmHg 81%
06:00 +8°C° 0 mm 7 mps 757 mmHg 81%
07:00 +9°C° 0 mm 6 mps 757 mmHg 78%
08:00 +11°C° 0 mm 6 mps 758 mmHg 74%
09:00 +13°C° 0 mm 6 mps 758 mmHg 71%
10:00 +14°C° 0 mm 7 mps 758 mmHg 65%
11:00 +16°C° 0 mm 7 mps 758 mmHg 59%
12:00 +17°C° 0 mm 8 mps 758 mmHg 53%
13:00 +17°C° 0 mm 8 mps 758 mmHg 53%
14:00 +17°C° 0 mm 7 mps 757 mmHg 53%
15:00 +17°C° 0 mm 7 mps 757 mmHg 53%
16:00 +16°C° 0 mm 7 mps 757 mmHg 57%
17:00 +15°C° 0 mm 7 mps 756 mmHg 62%
18:00 +13°C° 0 mm 6 mps 756 mmHg 66%
19:00 +12°C° 0 mm 7 mps 756 mmHg 67%
20:00 +12°C° 0 mm 8 mps 756 mmHg 69%
21:00 +12°C° 0 mm 9 mps 756 mmHg 70%
22:00 +12°C° 0 mm 8 mps 756 mmHg 72%
23:00 +12°C° 0 mm 7 mps 756 mmHg 74%

22 January, Friday

Time Temperature Precipitation Wind Pressure Humidity
00:00 +11°C° 0 mm 6 mps 756 mmHg 77%
01:00 +11°C° 0 mm 6 mps 756 mmHg 78%
02:00 +10°C° 0 mm 5 mps 756 mmHg 80%
03:00 +10°C° 0 mm 5 mps 756 mmHg 81%
04:00 +10°C° 0 mm 4 mps 756 mmHg 80%
05:00 +10°C° 0 mm 4 mps 756 mmHg 79%
06:00 +10°C° 0 mm 3 mps 756 mmHg 78%
07:00 +11°C° 0 mm 3 mps 757 mmHg 73%
08:00 +12°C° 0 mm 3 mps 757 mmHg 68%
09:00 +13°C° 0 mm 3 mps 757 mmHg 63%
10:00 +14°C° 0 mm 4 mps 756 mmHg 60%
11:00 +15°C° 0 mm 5 mps 756 mmHg 58%
12:00 +17°C° 0 mm 6 mps 755 mmHg 55%
13:00 +16°C° 0.3 mm 8 mps 755 mmHg 56%
14:00 +13°C° 0.3 mm 9 mps 755 mmHg 58%
15:00 +12°C° 0.3 mm 10 mps 754 mmHg 59%
16:00 +12°C° 0 mm 9 mps 755 mmHg 60%
17:00 +11°C° 0 mm 8 mps 756 mmHg 61%
18:00 +11°C° 0 mm 6 mps 756 mmHg 61%
19:00 +10°C° 0 mm 6 mps 757 mmHg 61%
20:00 +10°C° 0 mm 7 mps 758 mmHg 60%
21:00 +10°C° 0 mm 7 mps 759 mmHg 60%
22:00 +9°C° 0 mm 7 mps 759 mmHg 63%
23:00 +9°C° 0 mm 7 mps 760 mmHg 67%

23 January, Saturday

Time Temperature Precipitation Wind Pressure Humidity
00:00 +8°C° 0 mm 7 mps 760 mmHg 71%
01:00 +8°C° 0 mm 7 mps 760 mmHg 71%
02:00 +8°C° 0 mm 6 mps 761 mmHg 71%
03:00 +8°C° 0 mm 6 mps 761 mmHg 71%
04:00 +7°C° 0 mm 6 mps 761 mmHg 71%
05:00 +7°C° 0 mm 6 mps 761 mmHg 72%
06:00 +7°C° 0 mm 6 mps 761 mmHg 72%
07:00 +8°C° 0 mm 6 mps 761 mmHg 69%
08:00 +8°C° 0 mm 6 mps 762 mmHg 66%
09:00 +9°C° 0 mm 5 mps 762 mmHg 63%
10:00 +10°C° 0 mm 5 mps 761 mmHg 58%
11:00 +13°C° 0 mm 5 mps 761 mmHg 52%
12:00 +14°C° 0 mm 5 mps 761 mmHg 47%
13:00 +14°C° 0 mm 5 mps 760 mmHg 47%
14:00 +14°C° 0 mm 5 mps 760 mmHg 48%
15:00 +15°C° 0 mm 5 mps 760 mmHg 48%
16:00 +13°C° 0 mm 5 mps 760 mmHg 55%
17:00 +12°C° 0 mm 5 mps 760 mmHg 61%
18:00 +9°C° 0 mm 5 mps 760 mmHg 67%
19:00 +10°C° 0 mm 4 mps 760 mmHg 69%
20:00 +10°C° 0 mm 4 mps 760 mmHg 71%
21:00 +10°C° 0 mm 4 mps 760 mmHg 72%
22:00 +10°C° 0 mm 4 mps 760 mmHg 72%
23:00 +11°C° 0 mm 4 mps 760 mmHg 71%
Show more